Regional Weather Roundup
Issued by NWS

Home | Current Version | Previous Version | Text Only | Print | Product List | Glossary On
Versions: 1 2 3 4 5 6 7 8 9 10 11 12 13 14 15 16 17 18 19 20 21 22 23 24 25 26 27 28 29 30 31 32 33 34 35 36 37 38 39 40 41 42 43 44 45 46 47 48 49 50
000
ASPQ40 PGUM 180712
RWRPQ
WEATHER ROUNDUP FOR THE MARIANAS AND MICRONESIA
NATIONAL WEATHER SERVICE TIYAN GU
500 PM CHST FRI AUG 18 2017

GUZ001>004-180800-
MARIANA ISLANDS-

CITY           SKY/WX    TMP DP  RH WIND       PRES   REMARKS
GUAM AIRPORT   SUNNY     84  75  74 E12       29.82R HX  92
ANDERSEN AFB   MOSUNNY   82  75  78 E13       29.88R
ROTA AIRPORT   PTSUNNY   81  75  83 E12       29.83R
TINIAN AP      LGT RAIN  77  75  94 E8        29.82R
SAIPAN AP      LGT RAIN  82  77  83 SE8       29.83R HX  91

$$

PMZ161-180800-
REPUBLIC OF PALAU-

CITY           SKY/WX    TMP DP  RH WIND       PRES   REMARKS
KOROR AP       CLOUDY    82  77  83 W12       29.75F HX  91
KOROR WSO      CLOUDY    84  75  74 W7        29.76F HX  92

$$

PMZ171>174-180800-
FEDERATED STATES OF MICRONESIA-

CITY           SKY/WX    TMP DP  RH WIND       PRES   REMARKS
YAP AIRPORT    CLOUDY    79  75  89 S9        29.75S
CHUUK AP       CLOUDY    86  79  79 W7        29.78R HX  99
POHNPEI AP     CLOUDY    84  77  79 E7        29.75R HX  94
POHNPEI WSO    CLOUDY    86  77  74 E6        29.80R HX  97
KOSRAE AP      NOT AVBL

$$

PMZ181-180800-
REPUBLIC OF THE MARSHALL ISLANDS-

CITY           SKY/WX    TMP DP  RH WIND       PRES   REMARKS
KWAJALEIN AP   CLEAR     86  75  70 E13       29.77R HX  95
MAJURO AP      MOCLDY    82  77  83 E7        29.78R HX  91
MAJURO WSO     MOCLDY    84  75  74 E8        29.75R HX  92

$$




USA.gov is the U.S. government's official web portal to all federal, state and local government web resources and services.